046  
ASUS42 KTBW 200716  
RWRFL  
FLORIDA REGIONAL WEATHER ROUNDUP  
NATIONAL WEATHER SERVICE TAMPA BAY RUSKIN FL  
300 AM EDT WED MAR 20 2019  
 
NOTE: "FAIR" INDICATES FEW OR NO CLOUDS BELOW 12,000 FEET WITH NO  
SIGNIFICANT WEATHER AND/OR S TO VISIBILITY
.  
 
FLZ001>010-012>015-112-114-115-200800-  
PANHANDLE FLORIDA  
 
CITY SKY/WX TMP DP RH WIND PRES REMARKS
 
PENSACOLA FAIR 50 35 56 N7 30.19F  
PENSACOLA NAS FAIR 43 38 82 N3 30.18F  
MILTON NAS FAIR 41 34 76 N5 30.20F WCI 38  
CRESTVIEW FAIR 37 34 89 CALM 30.21F  
DUKE FIELD FAIR 37 34 87 CALM 30.19F  
VALPARAISO FAIR 44 35 70 NE7 30.18F WCI 40  
MARY ESTHER CLEAR 43 35 73 NE6 30.18F WCI 40  
PANAMA CITY FAIR 50 42 74 N6 30.19F  
TYNDALL AFB FAIR 54 45 73 E5 30.19F  
APALACHICOLA FAIR 51 44 77 NE6 30.18F  
 
STATION/POSITION SKY/WX TEMP WIND PRES WAVE SWELL
 
AIR SEA DIR/SP/G HT/PER HT/PER  
(F) (DEG/KT/KT) (MB) (FT/S) (FT/S)  
30.1N 87.6W 1022.2F 2/ 2  
29.2N 88.2W 30/ 10/ 16 1022.1F 3/ 6 2/ 6  
PANAMA CITY BEAC 55 64 50/ 4/ 7 1022.8F  
TOWER C 59 80/ 21/ 23 1021.5F  
 

 
FLZ011-016>038-118-127-128-134-139-239-200800-  
NORTH FLORIDA  
 
CITY SKY/WX TMP DP RH WIND PRES REMARKS
 
MARIANNA FAIR 47 42 83 CALM 30.20F  
TALLAHASSEE FAIR 51 42 71 NE3 30.20F  
PERRY FAIR 50 39 67 NE6 30.19F  
LIVE OAK CLOUDY 52 41 66 NE7 30.18F  
CROSS CITY CLOUDY 55 41 58 NE9 30.16F  
LAKE CITY CLOUDY 52 41 66 NE8 30.18S  
GAINESVILLE CLOUDY 58 43 57 N9 30.17F  
WILLISTON N/A N/A N/A N/A MISG N/A  
PALATKA CLOUDY 59 46 63 NE14 30.14F  
MAYPORT NAS CLOUDY 59 46 62 N21G26 30.16F  
JACKSONVILLE CLOUDY 56 41 57 NE13 30.17F  
JAX NAS MOCLDY 59 43 55 NE16 30.17F  
JAX CECIL CLOUDY N/A N/A N/A NE10 30.16F  
FERNANDINA BEA CLOUDY 57 42 55 NE15G21 30.18F  
ST AUGUSTINE CLOUDY 59 46 62 N18G24 30.15F  
PALM COAST CLOUDY 58 53 81 N14G21 30.11F  
 
STATION/POSITION SKY/WX TEMP WIND PRES WAVE SWELL
 
AIR SEA DIR/SP/G HT/PER HT/PER  
(F) (DEG/KT/KT) (MB) (FT/S) (FT/S)  
SHELL POINT NOT AVBL  
KEATON BEACH 51 40/ 7/ 10 1021.5F  
CEDAR KEY 56 40/ 12/ 14 1020.6F  
FERNANDINA 58 61 30/ 10/ 18 1022.7F  
30.7N 81.3W 62 N/A 7/ 8 2/11  
MAYPORT 58 62 30/ 17/ 21 1021.5F  
31.4N 80.9W 58 61 40/ 17/ 21 1022.2F 6/ 8 3/ 8  
ST AUGUSTINE 61 62 20/ 24/ 27 1020.2F  
 

 
FLZ040-043>046-052-053-057-058-063-144-200800-  
INTERIOR CENTRAL FLORIDA  
 
CITY SKY/WX TMP DP RH WIND PRES REMARKS
 
OCALA CLOUDY 58 46 64 N10G16 30.14F  
LEESBURG CLOUDY 59 49 69 N15G22 30.11F  
SANFORD LGT RAIN 59 57 93 N9 30.09F FOG  
ORLANDO EXEC LGT RAIN 58 57 97 N13 30.08F FOG  
ORLANDO INTL LGT RAIN 58 56 93 N16 30.07F  
KISSIMMEE LGT RAIN 58 57 97 N12 30.08F  
WINTER HAVEN CLOUDY 58 55 90 N16G23 30.08F  
BARTOW CLOUDY 57 55 94 N12G20 30.07F  
SEBRING CLOUDY 60 59 96 N12 30.04S  
OKEECHOBEE CLOUDY 59 59 100 CALM 30.01F  
 

 
FLZ041-047-054-059-064-141-147-200800-  
EAST CENTRAL FLORIDA  
 
CITY SKY/WX TMP DP RH WIND PRES REMARKS
 
DAYTONA BEACH LGT RAIN 61 59 93 NE14 30.09F  
DELAND CLOUDY 57 55 94 N10 30.09F  
JFK SPACE CTR N/A N/A N/A N/A NE6 N/A  
CAPE CANAVERAL MOCLDY 62 60 92 NE8G17 30.03F  
PATRICK AFB MOCLDY 63 63 100 N13 30.03F  
MELBOURNE LGT RAIN 63 61 93 N12 30.03F FOG  
VERO BEACH LGT RAIN 64 63 96 NE10 30.00F FOG  
FT PIERCE CLOUDY 62 59 90 NW6 30.00F  
STUART CLOUDY 63 61 94 NW8 30.00F  
 
STATION/POSITION SKY/WX TEMP WIND PRES WAVE SWELL
 
AIR SEA DIR/SP/G HT/PER HT/PER  
(F) (DEG/KT/KT) (MB) (FT/S) (FT/S)  
28.5N 80.2W 66 50/ 17/ 21 1017.2F 9/10 5/10  
28.9N 78.5W 69 74 50/ 16/ 21 1017.1F 9/10 7/10  
TRIDENT PIER 61 68 20/ 13/ 17 1018.3F  
28.4N 80.5W 66 N/A 4/10 2/11  
27.5N 80.2W 69 N/A 5/ 9 2/11  
 

 
FLZ050-056-061-142-242-148-248-149-249-151-251-155-255-  
160-260-200800-  
WEST CENTRAL FLORIDA  
 
CITY SKY/WX TMP DP RH WIND PRES REMARKS
 
CRYSTAL RIVER MOCLDY 57 45 62 NE9 30.12F  
INVERNESS CLOUDY 59 48 67 NE14 30.12F  
BROOKSVILLE CLOUDY 58 47 66 NE9 30.11F  
CLEARWATER AIR CLOUDY 57 50 77 NE6 30.09F  
ST PETE CLEARW CLOUDY 59 52 77 NE14G21 30.09F  
TAMPA INTL CLOUDY 59 51 75 NE13G21 30.10F  
TAMPA EXEC CLOUDY 57 52 82 NE5 30.10F  
PLANT CITY CLOUDY 59 54 82 N9G16 30.11S  
MACDILL AFB CLOUDY 59 51 75 NE12G17 30.08F  
PETER O KNIGHT CLOUDY 59 54 82 NE15 30.09F  
ST PETERSBURG CLOUDY 61 55 81 NE23 30.07F  
SARASOTA CLOUDY 60 54 80 NE10 30.05F  
VENICE CLOUDY 61 57 88 NE12 30.06F  
 
STATION/POSITION SKY/WX TEMP WIND PRES WAVE SWELL
 
AIR SEA DIR/SP/G HT/PER HT/PER  
(F) (DEG/KT/KT) (MB) (FT/S) (FT/S)  
27.3N 84.2W 72 N/A 5/ 5  
CLEARWATER BEACH 40/ 15/ 19 1019.2F  
MIDDLE TAMPA BAY 61 50/ 24/ 28 1019.0F  
VENICE 61 72 20/ 12/ 15 1018.0F  
 

 
FLZ066-069-070-075>078-162-262-165-265-200800-  
SOUTHWEST FLORIDA AND KEYS  
 
CITY SKY/WX TMP DP RH WIND PRES REMARKS
 
PUNTA GORDA CLOUDY 60 57 89 N8 30.06S  
FT MYERS CLOUDY 61 59 93 N9 30.02F  
SOUTHWEST INTL CLOUDY 61 59 93 N8 30.03F  
NAPLES LGT RAIN N/A N/A N/A MISG 30.01S  
MARCO ISLAND LGT RAIN 61 60 97 N9 30.02  
IMMOKALEE CLOUDY 61 59 94 N7 30.00F  
MARATHON LGT RAIN 70 65 84 NE14 29.96F  
KEY WEST NAS LGT RAIN 70 65 84 NE12 29.96F  
KEY WEST INTL LGT RAIN 68 66 93 NE7 29.96F  
 
STATION/POSITION SKY/WX TEMP WIND PRES WAVE SWELL
 
AIR SEA DIR/SP/G HT/PER HT/PER  
(F) (DEG/KT/KT) (MB) (FT/S) (FT/S)  
NAPLES 62 73 50/ 6/ 9 1016.3F  
26.0N 85.6W 71 79 60/ 16/ 19 1017.8F 6/ 7  
DRY TORTUGAS 71 40/ 18/ 20 1015.3F  
SAND KEY 69 1014.5F  
SOMBRERO KEY 69 1013.9F  
 

 
FLZ067-068-071>074-168-172>174-200800-  
SOUTHEAST FLORIDA  
 
CITY SKY/WX TMP DP RH WIND PRES REMARKS
 
W PALM BEACH CLOUDY 62 60 93 N6 29.97F  
FT LAUDER-EXEC LGT RAIN 65 65 100 N8 29.96F  
FT LAUDERDALE LGT RAIN 67 64 90 N8 29.97F  
POMPANO BEACH LGT RAIN 65 63 93 NW6 29.97F  
PEMBROKE PINES CLOUDY 63 63 100 N8 29.98F  
OPA LOCKA MOCLDY 65 63 93 N6 29.97F  
MIAMI CLOUDY 67 66 97 E3 29.97F  
WEST KENDALL CLOUDY 67 65 93 NE3 29.97F  
HOMESTEAD LGT RAIN 68 65 90 NE8 29.96F  
 
STATION/POSITION SKY/WX TEMP WIND PRES WAVE SWELL
 
AIR SEA DIR/SP/G HT/PER HT/PER  
(F) (DEG/KT/KT) (MB) (FT/S) (FT/S)  
PORT EVERGLADES 69 320/ 5/ 8 1015.5  
VIRGINIA KEY 71 76 40/ 9/ 11 1013.8F  
LAKE WORTH 63 74 280/ 4/ 6 1016.1F  
FOWEY ROCKS 71 76 60/ 19/ 22 1015.7F  
SETTLEMENT POINT 68 110/ 4/ 5 1015.1F  
 

 
 
 
 
CLICK HERE TO GO TO PREVIOUS BULLETINS.

The Nexlab FL Page Main Text Page